Temp
25 24 24 24 24 24 24 24 24 23 23 23 23 24 24 24 24 23 24 25 24 24 25 24 25 25 26 27 27 27 28 28 29 29 29 29 26 26 26 26 27 27 29
25 25 24 24 24 24 24 24 24 23 23 23 23 24 24 24 24 24 24 25 24 24 25 25 24 25 25 25 26 26 27 27 27 27 27 27 27 26 26 26 27 28 27
24 24 24 24 24 24 24 24 24 24 24 24 24 23 24 24 24 24 24 24 24 24 25 25 25 25 25 25 25 26 27 27 27 27 27 28 28 27 27 27 27 27 28
23 24 23 23 24 24 24 24 24 24 24 24 24 24 24 24 24 24 24 24 24 25 24 24 25 25 24 24 24 24 25 25 26 26 27 28 28 28 28 28 29 29 28
21 22 22 22 22 23 23 23 23 23 24 24 24 24 24 25 25 24 24 24 24 24 24 24 24 24 24 24 25 26 24 25 27 27 28 28 29 28 28 28 28 28 28
19 20 20 21 20 21 21 22 22 22 23 23 24 24 24 25 25 24 24 25 24 24 25 24 24 24 24 24 24 24 23 23 24 25 27 28 27 27 28 27 27 27 28
19 19 19 19 19 20 21 21 21 22 22 22 22 23 22 22 22 23 23 23 24 25 24 24 25 27 25 25 25 24 23 24 23 23 23 24 25 25 25 25 26 26 26
18 18 19 18 19 19 19 20 20 21 21 22 22 20 20 19 20 20 21 22 24 24 24 24 23 23 22 22 23 24 25 25 25 24 23 24 24 25 24 24 24 24 25
16 17 18 17 18 18 17 18 19 20 20 20 19 18 17 17 19 20 20 22 22 21 21 21 21 20 20 20 20 22 23 24 25 24 24 23 23 23 23 22 24 26 28
16 17 18 18 18 18 17 17 17 18 18 17 16 16 17 16 18 19 20 21 20 20 19 19 19 19 19 20 19 20 22 23 21 21 22 22 22 22 23 23 23 25 26
15 15 16 16 17 17 16 17 17 17 17 17 16 15 15 14 17 18 19 17 18 21 21 21 20 19 19 19 19 18 19 19 19 20 21 22 22 22 22 21 21 21 21
13 14 14 16 17 16 16 16 16 16 17 17 17 18 16 15 15 16 16 17 17 19 19 19 18 19 19 19 19 19 19 19 19 20 20 21 20 20 22 21 21 21 22
14 14 14 14 15 15 15 15 16 16 17 18 18 18 18 16 15 14 15 15 16 16 16 17 17 18 19 20 19 19 20 20 22 22 23 22 22 22 21 22 22 21 21
14 14 14 14 14 15 16 16 17 17 17 17 16 15 14 12 11 11 11 13 14 15 15 17 17 18 18 19 19 20 20 21 20 21 21 21 22 22 22 22 22 23 23
13 14 14 14 14 13 12 12 13 8 12 15 14 14 14 13 8 9 10 11 12 12 15 17 19 19 19 20 20 20 20 20 20 19 19 20 20 20 21 21 21 21 22
14 14 15 15 15 15 13 10 9 8 9 10 10 11 10 8 9 10 11 11 12 12 14 15 16 16 16 17 18 18 17 17 16 16 17 18 18 18 19 19 20 21 21
14 13 13 14 14 14 14 14 11 6 8 8 9 8 9 8 9 11 12 12 12 14 15 15 15 14 13 13 14 14 14 15 14 15 15 16 17 17 16 17 18 19 20
12 11 13 14 14 14 14 14 14 14 14 11 7 7 7 8 8 9 10 12 14 14 13 13 13 13 13 12 13 13 12 11 12 12 13 14 15 16 16 16 16 17 18
12 13 13 13 13 13 13 13 13 13 13 13 12 9 8 7 8 8 9 11 12 12 11 11 11 11 11 11 11 10 10 11 10 11 11 11 11 12 13 15 15 15 14
12 11 12 12 11 12 13 13 13 12 12 12 12 10 9 11 11 10 9 9 10 10 9 9 8 8 8 8 8 9 9 10 10 10 11 9 8 8 8 9 9 9 10
12 10 11 12 12 12 12 13 12 12 12 12 10 6 6 8 10 9 9 8 8 7 7 7 6 6 6 5 5 6 7 7 7 7 8 8 8 8 7 7 7 7 7
12 12 11 12 12 11 11 11 12 12 11 11 10 7 6 8 9 8 7 7 6 5 5 4 4 3 3 3 3 3 3 3 3 3 4 3 3 4 5 6 7 8 8
13 13 12 12 12 10 10 11 11 11 10 10 10 10 9 8 8 7 6 6 5 5 4 3 2 2 1 1 1 1 1 1 2 2 2 2 2 3 4 5 6 7 7
12 12 12 12 11 11 11 11 10 9 10 10 9 9 9 8 8 7 6 4 3 4 3 3 2 1 0 0 0 0 0 0 -0 -1 -0 0 0 1 2 3 4 5 4
12 12 12 12 11 11 11 11 10 10 10 9 9 9 9 8 8 7 6 4 3 2 1 0 -0 -0 -1 -1 -1 -1 -1 -1 -1 -0 -0 -1 -2 -1 -1 -0 1 1 2
12 12 12 12 12 11 11 11 10 10 10 9 9 9 8 8 7 7 6 4 3 2 1 0 -0 -1 -1 -1 -1 -1 -2 -1 -0 0 1 1 -1 -1 -1 -1 -0 0 1
Height
854 858 862 864 865 867 868 869 869 870 872 875 877 879 880 882 884 886 886 886 888 889 890 891 891 890 889 888 888 888 887 886 883 880 879 879 880 878 875 873 868 865 862
850 855 858 862 863 864 866 867 866 867 869 872 874 876 877 879 881 883 884 884 886 888 888 888 888 888 888 888 888 887 887 886 885 883 881 878 877 876 873 871 867 863 861
847 852 856 858 860 861 864 866 867 867 868 870 873 873 875 878 879 880 881 882 883 885 886 886 886 886 886 886 886 886 884 883 882 880 878 875 873 873 870 868 865 862 857
846 850 853 855 857 859 860 863 865 866 868 869 869 872 873 874 876 876 878 879 881 881 883 884 884 885 885 885 885 884 884 883 881 879 876 872 870 867 866 863 860 858 855
848 851 852 854 855 856 858 860 862 864 865 867 867 868 870 872 872 873 875 877 879 879 880 880 880 881 881 882 882 880 882 880 878 875 873 870 866 864 865 863 859 855 854
848 849 852 854 855 856 857 858 860 862 864 865 865 867 868 869 868 870 872 873 874 875 876 877 877 877 877 877 877 878 879 878 877 875 871 867 867 866 862 861 860 855 851
847 850 852 854 854 855 856 859 859 860 862 863 863 864 865 866 865 867 868 870 870 871 872 873 873 872 873 874 873 874 873 872 871 871 870 868 866 865 863 860 858 855 851
846 850 853 853 853 853 855 857 859 860 862 862 864 863 864 863 864 864 864 866 868 868 867 869 870 870 870 870 870 869 868 867 866 865 864 863 862 860 859 857 855 852 847
846 849 853 854 853 854 856 858 859 860 861 863 862 863 866 863 863 863 865 865 865 865 863 863 864 864 866 866 866 866 864 863 861 859 858 856 854 853 852 851 849 845 838
850 850 854 856 855 856 858 860 859 860 860 862 864 864 867 868 864 863 865 867 867 866 866 864 864 864 864 863 863 864 863 861 859 856 853 849 849 847 846 845 844 841 836
853 853 855 858 858 860 861 860 861 862 862 865 867 866 870 869 866 866 866 868 870 868 867 867 867 864 862 862 861 861 861 859 858 855 852 848 845 843 842 841 840 838 836
855 857 857 858 861 861 861 863 863 862 864 866 869 871 870 868 870 868 869 869 870 870 868 868 867 864 861 861 859 858 857 857 857 855 851 847 844 843 840 837 837 835 833
859 861 860 861 862 864 863 864 864 866 867 867 869 868 871 869 873 871 872 872 870 870 868 868 866 865 860 859 858 857 855 856 854 851 847 845 842 840 838 835 832 830 829
860 861 862 863 863 864 863 864 865 866 867 868 868 871 872 871 871 869 871 871 871 870 868 866 862 860 859 858 856 856 856 854 853 850 847 844 841 839 835 832 830 827 825
860 861 862 863 864 865 866 867 870 868 868 870 871 871 872 874 872 870 868 869 867 865 863 862 859 857 856 857 857 855 854 852 852 850 847 844 841 837 834 832 830 826 823
861 862 862 863 864 864 865 868 867 869 868 869 871 872 873 871 870 868 864 867 866 862 862 861 860 860 862 860 858 856 855 854 853 851 847 843 841 838 834 832 829 825 821
861 862 862 863 864 864 863 864 867 870 869 870 871 871 870 870 867 864 863 866 866 863 863 863 863 863 864 863 861 859 857 855 853 849 849 845 841 838 836 831 828 825 819
861 861 862 862 863 864 864 864 865 866 867 871 873 872 870 869 868 866 865 868 868 865 864 865 864 864 864 863 861 859 856 855 853 851 848 845 841 838 833 830 828 825 820
861 862 863 863 863 864 865 866 867 869 870 871 871 871 871 871 870 869 869 874 868 867 868 867 867 866 864 864 862 858 856 855 852 851 847 844 842 839 833 831 825 823 822
861 862 863 864 865 866 866 867 868 869 870 870 870 871 871 870 870 872 876 874 870 869 869 868 867 865 865 863 860 858 856 853 851 850 846 843 841 839 836 834 829 824 822
860 863 864 864 864 865 865 866 866 867 867 869 870 871 871 873 874 875 874 873 871 870 869 869 868 867 865 864 862 860 857 855 851 848 844 840 838 835 834 831 826 822 819
858 861 862 862 864 866 866 867 867 867 868 869 872 874 874 874 874 873 873 872 872 871 870 869 868 866 864 862 861 858 855 853 850 847 844 841 837 834 830 826 821 817 812
855 857 859 861 863 864 867 867 866 866 868 869 871 872 872 872 872 872 872 872 871 870 869 867 866 865 863 860 858 856 853 850 847 844 840 836 833 830 825 819 815 810 805
853 855 857 859 861 862 863 865 867 867 866 868 869 869 870 870 870 870 870 869 868 867 865 864 863 860 858 857 854 852 849 847 844 840 836 832 827 823 819 813 808 801 797
848 850 852 854 856 858 861 862 864 865 866 867 866 866 868 867 867 867 867 866 865 863 861 859 858 856 853 851 849 846 844 840 837 833 828 821 815 810 806 801 798 793 789
841 844 846 848 851 853 856 858 860 861 862 863 864 864 864 864 865 865 865 864 863 861 859 856 853 851 848 845 843 840 835 831 828 824 819 811 804 799 795 791 788 784 779
Wind_Speed
14 15 13 11 10 9 8 6 7 9 10 11 11 11 11 10 10 9 8 8 9 10 9 9 9 9 10 9 9 10 10 11 13 16 16 14 13 14 16 15 15 14 13
12 16 15 12 11 11 10 7 6 7 10 7 9 10 11 12 12 11 10 9 10 10 10 11 11 11 10 10 11 11 13 12 14 14 16 15 12 14 14 15 14 15 14
11 13 13 15 13 12 12 12 10 9 9 9 8 10 11 10 11 12 11 11 10 11 11 11 10 10 10 10 9 11 12 12 12 14 15 16 15 15 14 15 14 14 14
9 12 12 13 13 13 13 13 13 12 12 12 11 10 9 10 10 10 10 10 10 11 11 10 10 11 11 9 10 10 10 11 13 13 15 15 16 13 12 15 17 17 17
6 6 7 9 11 12 12 13 12 11 11 12 11 11 11 10 11 11 9 10 10 10 11 11 12 12 13 13 12 11 11 13 14 14 16 16 16 14 17 17 18 18 19
10 9 7 10 9 9 10 10 10 9 9 8 10 11 11 12 9 14 12 11 11 13 13 12 14 15 15 17 18 17 17 15 16 17 19 18 16 16 16 17 19 20 20
10 8 8 6 8 10 10 9 7 7 7 6 5 7 7 8 14 16 17 14 13 13 13 12 12 14 11 13 15 15 17 18 19 21 21 21 21 19 18 19 19 19 22
11 10 7 7 8 5 8 8 7 6 6 6 4 4 5 0 3 5 11 14 14 13 12 11 12 12 12 13 13 16 17 18 17 17 18 19 19 18 16 18 21 22 23
17 13 10 10 11 7 6 5 5 5 6 5 8 10 7 5 2 1 0 5 5 3 4 6 6 5 8 9 11 15 17 18 17 17 20 21 21 24 25 22 23 24 25
10 13 10 8 9 9 7 6 8 7 12 10 10 9 8 8 8 5 7 3 2 2 2 3 4 3 3 4 5 8 14 13 13 17 20 20 19 18 19 18 18 22 23
9 12 11 8 9 8 8 9 10 11 11 11 10 12 9 10 12 10 8 8 5 3 2 3 2 4 5 7 7 6 8 15 14 14 13 12 12 12 12 11 15 19 20
8 8 10 9 7 8 9 8 8 10 10 10 10 9 8 9 10 9 9 9 6 4 5 6 5 5 5 7 7 9 10 13 12 13 11 11 12 11 13 13 15 17 18
7 7 7 8 8 7 8 8 9 8 7 8 6 5 4 6 5 7 6 5 5 4 5 5 6 8 8 8 11 11 11 9 11 12 12 12 12 14 15 14 14 16 18
6 6 6 6 7 6 5 4 4 4 4 3 4 3 2 4 5 7 9 9 10 7 11 9 8 9 9 10 9 9 10 11 10 10 11 13 13 14 14 15 17 18 20
6 5 5 6 6 8 8 6 5 7 4 3 2 2 1 1 5 8 10 10 10 9 11 8 8 8 10 10 11 11 12 10 11 12 15 15 15 15 16 15 16 18 18
6 6 5 5 6 7 8 9 8 7 5 5 4 6 3 4 5 7 8 7 8 8 6 8 8 8 9 11 11 11 11 12 13 16 16 16 17 17 18 20 19 18 19
5 5 5 5 4 5 7 8 7 6 6 6 4 4 2 5 7 7 7 5 12 6 6 7 7 9 9 10 11 11 13 14 15 15 17 18 18 18 20 19 20 21 21
5 7 5 5 5 4 4 4 3 5 5 5 4 6 9 9 11 10 10 6 4 7 8 8 9 9 10 11 12 13 14 16 16 16 17 19 20 22 22 20 21 23 23
6 6 5 5 5 5 5 4 4 4 4 4 5 6 9 10 14 16 14 6 7 8 9 9 9 10 11 12 14 15 16 17 18 19 19 20 21 22 23 23 24 23 24
7 8 6 7 7 7 7 6 6 5 4 4 4 5 5 5 6 7 6 7 8 8 9 10 11 12 13 15 16 17 18 18 19 19 20 19 19 20 21 22 22 24 26
9 10 6 7 6 5 5 4 4 4 4 4 5 7 7 4 3 4 6 8 8 9 9 10 11 11 12 13 15 16 17 19 20 21 22 23 23 24 24 25 26 27 28
11 11 10 8 6 6 5 5 5 5 4 4 4 2 6 2 3 4 5 6 7 8 8 9 10 12 13 14 16 17 19 20 20 22 23 25 26 27 29 31 32 32 31
12 12 11 10 8 7 7 6 5 5 5 4 3 1 1 2 2 3 4 6 6 7 8 8 10 11 12 13 15 17 19 20 21 22 25 27 28 29 30 32 33 35 34
14 14 13 12 11 10 9 8 6 5 5 4 3 2 0 1 2 3 4 5 6 7 8 9 10 12 13 15 15 15 17 18 19 23 25 27 31 32 32 33 34 36 36
18 17 17 15 13 12 9 9 7 6 5 4 3 1 1 2 3 4 6 7 8 9 9 11 11 13 15 17 19 18 18 23 25 25 29 33 32 32 32 33 34 34 35
21 20 20 18 16 14 13 11 9 7 6 4 3 2 1 2 3 5 6 7 8 9 11 11 12 15 17 17 17 20 25 24 25 26 30 35 32 31 30 30 31 33 33
Wind_Direction
209 207 216 214 210 211 230 212 193 187 186 192 200 200 201 205 210 212 220 212 216 226 236 244 252 254 261 271 273 275 278 281 284 295 312 310 317 317 320 325 326 319 330
199 208 212 215 215 214 219 210 196 172 197 209 194 202 208 207 208 210 218 226 226 235 241 246 250 252 256 264 268 274 286 290 287 296 296 298 305 316 313 315 320 322 322
193 211 214 218 219 218 216 218 209 198 187 191 202 210 217 218 211 217 216 219 225 237 243 247 256 247 253 262 267 281 283 273 268 273 289 293 306 302 313 310 308 317 313
174 205 210 219 219 219 213 216 223 217 214 213 214 220 221 217 221 203 214 218 222 229 236 241 249 250 258 264 266 268 274 278 276 269 281 291 299 303 288 305 318 318 322
167 192 194 208 209 207 203 203 208 217 219 221 221 220 218 220 217 207 209 220 226 232 236 241 241 242 247 253 265 268 269 270 275 279 280 286 287 326 322 309 303 317 314
201 198 194 204 201 194 192 191 192 203 213 219 224 226 223 228 215 221 212 221 226 232 240 248 248 251 257 258 261 262 258 265 269 278 288 293 298 290 304 312 313 310 311
170 184 196 200 200 215 187 192 188 196 206 203 207 217 217 216 234 228 231 233 233 236 244 252 256 256 241 262 267 272 273 267 264 266 270 276 287 287 293 293 292 299 298
158 167 180 166 165 177 188 189 181 186 190 191 185 155 139 264 272 249 237 235 243 243 246 252 257 266 270 259 264 266 266 267 265 263 265 271 275 281 283 283 284 287 287
131 131 137 145 150 162 151 141 145 153 153 125 115 105 72 67 90 311 58 262 242 191 187 210 218 240 275 309 301 279 275 273 273 274 272 269 273 278 277 278 279 285 291
129 126 132 148 138 140 142 154 136 127 119 113 109 100 81 62 62 94 78 36 39 31 63 56 49 22 340 317 336 314 303 306 296 289 282 282 284 283 287 279 275 278 288
115 117 116 124 125 134 131 121 127 132 123 122 112 97 98 80 75 72 73 48 40 25 19 28 12 348 348 338 341 325 309 309 314 309 306 303 298 293 289 284 279 281 283
99 106 116 117 126 122 118 117 119 124 123 129 135 138 109 74 63 73 67 69 69 21 27 0 340 344 345 336 339 320 326 316 305 305 306 308 312 307 299 300 296 288 285
128 131 117 117 119 126 125 127 129 134 146 146 146 128 98 82 46 10 15 28 41 25 4 333 339 346 356 348 333 334 334 306 299 302 318 319 320 315 310 311 308 306 302
121 121 123 127 120 116 109 103 109 127 138 136 131 130 104 41 5 359 351 347 335 338 308 307 311 336 331 322 319 313 301 300 308 310 313 314 315 315 318 319 316 314 306
134 130 131 127 127 115 99 88 111 75 109 135 77 52 12 331 337 345 347 338 337 337 344 326 327 330 328 318 313 308 304 314 316 322 320 318 317 318 316 318 316 313 310
153 153 145 144 145 141 127 99 98 79 78 86 118 117 44 351 328 336 352 341 357 22 22 9 6 3 347 340 337 335 330 330 323 321 317 317 316 315 315 312 307 306 305
160 153 148 152 157 155 156 157 136 90 55 48 61 49 27 3 10 14 16 6 24 43 15 15 10 357 349 341 336 333 329 326 321 320 316 312 311 309 308 310 306 303 301
167 160 164 154 153 151 148 146 162 178 168 142 76 74 42 49 46 58 71 29 24 32 27 15 4 353 344 339 331 325 322 319 319 318 314 311 308 305 304 303 303 302 304
172 172 166 154 147 143 142 139 139 145 143 145 140 69 18 32 38 39 40 26 34 29 16 9 360 351 344 334 329 327 323 317 314 310 307 305 305 307 305 302 301 300 299
184 176 170 160 157 162 160 158 153 150 144 123 100 51 23 38 37 28 23 26 30 20 9 2 355 350 342 337 333 327 322 319 315 312 309 311 305 304 302 303 305 305 301
181 177 182 174 173 168 159 156 150 145 134 114 99 45 99 57 51 30 22 20 17 9 1 353 345 342 338 333 328 323 317 314 312 310 311 311 305 298 297 297 297 293 292
190 187 190 188 177 180 175 168 162 151 140 139 140 149 72 65 41 30 17 9 359 354 348 341 337 333 330 328 325 321 318 314 310 308 307 302 302 298 294 293 291 287 286
206 196 195 188 188 175 181 179 168 159 154 150 150 151 128 30 20 15 1 352 343 336 333 331 326 321 320 318 315 310 309 310 310 308 307 305 302 297 292 290 289 288 288
214 211 204 198 191 197 187 183 171 169 169 172 172 164 298 324 336 340 338 332 332 327 326 323 317 315 315 313 309 306 302 300 301 303 300 296 294 291 288 285 284 284 285
219 213 211 205 195 202 188 196 191 186 184 185 177 180 313 337 335 331 330 324 323 316 311 310 311 311 312 308 307 301 300 300 301 305 311 313 292 284 277 274 274 277 279
218 219 217 210 205 203 199 198 198 197 199 202 210 218 282 320 327 326 323 321 316 312 305 304 305 309 310 308 309 304 309 313 316 317 320 326 315 297 284 274 272 271 273